177P/Barnard 2 (2006)

Japanese version
Home page
Updated on January 6, 2021

---------------------------------------------------------------------

* Profile

Designation 177P/2006 M3
Rediscovery Date June 23, 2006
Magnitude 17.1 mag
Rediscoverer Lincoln Laboratory Near-Earth Asteroid Research project

* Pictures

* Orbital Elements

Epoch 2006 Aug. 13.0 TT = JDT 2453960.5                                         
T 2006 Aug. 28.68777 TT                                 Rudenko                 
q   1.1072236            (2000.0)            P               Q                  
n   0.00823843     Peri.   60.45982     +0.76132969     +0.38999863             
a  24.2794921      Node   272.06645     -0.60680624     +0.71000253             
e   0.9543968      Incl.   31.21781     +0.22839286     +0.58634246             
P 120                                                                           
From 1522 observations 1889 June 26-2006 Oct. 11, mean residual 0".6.           

* Finding Charts

* Magnitudes Graph

        m1 =  12.5 + 5 log d +  25   log r          [   ,-47]  (             - 2006 July 12)
        m1 = -22.5 + 5 log d + 750   log r(t + 35)  [-47,-35]  (2006 July 12 - 2006 July 24)
        m1 =   9.7 + 5 log d +  10   log r          [-35,  0]  (2006 July 24 - 2006 Aug. 28)
        m1 =   9.0 + 5 log d +  25.0 log r          [  0, 70]  (2006 Aug. 28 - 2006 Nov.  6)
        m1 =  11.7 + 5 log d +  25   log r          [ 70,   ]  (2006 Nov.  6 -             )

---------------------------------------------------------------------

The orbital elements are published on M.P.E.C. 2020-L06.
The charts are made with StellaNavigator Ver.2.0 for Windows (AstroArts / ASCII).
The magnitudes graphs are made with Comet for Windows.

---------------------------------------------------------------------

Copyright(C) Seiichi Yoshida (comet@aerith.net). All rights reserved.